Content
SEND FEEDBACK

Daily
Averages
Monthly
Summary
United States of America

GRASS VALLEY, CALIFORNIA


Home > North America > United States > California
Elevation: 2628 feet     Latitude: 39 16N     Longitude: 121 02W

WEATHER
 
SELECT A DAY
Number of Records: 71,170;   Date Range: 9/21/11 - 12/19/14
 
SHARE

PRINT THIS DATA

[ ← Previous Day ]
WEATHER ALMANAC - MAY 7, 2013
[ Next Day → ]
[ °C ]   °F
Weather ElementAverageHighLow
Temperature50.1 °F51.8 °F (2:40 pm)48.2 °F (12:20 am)
Dewpoint48.6 °F50 °F (8:40 am)46.4 °F (12:20 am)
Humidity94.9 %100 % (1:40 am)87 % (4:00 am)
Barometer30.02 in30.06 in (10:40 pm)29.97 in (3:20 am)
Wind Speed0.6 mph4.6 mph (12:20 pm)
Weather ElementAverage
Visibility6.3 mi
Wind DirectionNNE (23.7 °)

Weather ElementTotal
Precipitation0.51 in
Heating Degree Days15 (Base 65)
Averaged from 70 records on May 7, 2013
WEATHER CONDITIONS BREAKOUT
WIND DIRECTION BREAKOUT
WEATHER BY HOUR - MAY 7, 2013
[ °C ]   °F
Local TimeTemperatureDewpointHumidityBarometerVisibilityWind DirectionWind SpeedGust SpeedPrecipitationEventsConditions
12:20 AM48.2 °F46.4 °F93 %29.98 in10.0 miCalmOvercast
12:40 AM48.2 °F46.4 °F93 %29.98 in10.0 miCalmMostly Cloudy
1:00 AM48.2 °F46.4 °F93 %29.98 in10.0 miCalmOvercast
1:20 AM48.2 °F46.4 °F93 %29.98 in10.0 miCalmOvercast
1:40 AM48.2 °F48.2 °F100 %29.98 in9.0 miCalmOvercast
2:00 AM48.2 °F48.2 °F100 %29.98 in0.2 miCalmOvercast
2:20 AM48.2 °F48.2 °F100 %29.98 in9.0 miCalmOvercast
2:40 AM48.2 °F48.2 °F100 %29.98 in10.0 miCalmOvercast
3:00 AM50.0 °F48.2 °F94 %29.98 in10.0 miCalmOvercast
3:20 AM50.0 °F48.2 °F94 %29.97 in10.0 miCalmOvercast
3:40 AM48.2 °F48.2 °F100 %29.98 in10.0 miCalmOvercast
4:00 AM50.0 °F46.4 °F87 %29.98 in10.0 miCalmOvercast
4:20 AM50.0 °F46.4 °F87 %29.98 in10.0 miCalmOvercast
4:40 AM50.0 °F46.4 °F87 %29.98 in10.0 miCalmOvercast
5:00 AM50.0 °F46.4 °F87 %29.98 in10.0 miCalmOvercast
5:20 AM48.2 °F48.2 °F100 %29.98 in10.0 miCalmOvercast
5:40 AM48.2 °F48.2 °F100 %29.98 in5.0 miCalmOvercast
6:00 AM48.2 °F48.2 °F100 %29.98 in7.0 miCalmOvercast
6:20 AM48.2 °F48.2 °F100 %29.99 in4.0 miCalmOvercast
6:40 AM48.2 °F48.2 °F100 %29.99 in2.5 miCalmOvercast
7:00 AM48.2 °F48.2 °F100 %30.00 in1.8 miCalm0.01 inOvercast
7:20 AM48.2 °F48.2 °F100 %30.00 in3.0 miCalmMostly Cloudy
7:40 AM48.2 °F48.2 °F100 %30.01 in2.5 miCalmOvercast
8:00 AM50.0 °F48.2 °F94 %30.01 in2.5 miCalmOvercast
8:20 AM50.0 °F48.2 °F94 %30.01 in2.5 miCalmOvercast
8:40 AM50.0 °F50.0 °F100 %30.02 in3.0 miCalmOvercast
9:00 AM50.0 °F48.2 °F94 %30.02 in5.0 miCalmOvercast
9:20 AM50.0 °F50.0 °F100 %30.02 in7.0 miCalmOvercast
9:40 AM50.0 °F48.2 °F94 %30.02 in7.0 miCalmOvercast
10:00 AM50.0 °F48.2 °F94 %30.03 in5.0 miSouth (170°)3.5 mphOvercast
10:20 AM50.0 °F48.2 °F94 %30.03 in3.0 miCalmOvercast
10:40 AM50.0 °F48.2 °F94 %30.03 in3.0 miCalmOvercast
11:00 AM50.0 °F48.2 °F94 %30.04 in1.0 miCalm0.04 inOvercast
11:20 AM50.0 °F50.0 °F100 %30.04 in2.5 miCalm0.01 inOvercast
11:40 AM50.0 °F48.2 °F94 %30.04 in1.0 miCalm0.10 inOvercast
12:00 PM50.0 °F48.2 °F94 %30.05 in1.8 miCalm0.14 inOvercast
12:20 PM50.0 °F48.2 °F94 %30.05 in1.2 miWSW (250°)4.6 mph0.02 inOvercast
12:40 PM50.0 °F50.0 °F100 %30.05 in3.0 miCalm0.03 inOvercast
1:00 PM50.0 °F48.2 °F94 %30.05 in2.5 miWSW (250°)3.5 mph0.04 inOvercast
1:20 PM50.0 °F50.0 °F100 %30.04 in4.0 miCalmOvercast
1:40 PM50.0 °F50.0 °F100 %30.05 in1.2 miCalm0.03 inOvercast
2:00 PM50.0 °F50.0 °F100 %30.05 in1.8 miCalm0.09 inOvercast
2:20 PM50.0 °F50.0 °F100 %30.05 in4.0 miCalmOvercast
2:40 PM51.8 °F50.0 °F94 %30.05 in5.0 miCalmOvercast
3:20 PM51.8 °F50.0 °F94 %30.05 in5.0 miSE (140°)3.5 mphOvercast
3:40 PM51.8 °F50.0 °F94 %30.05 in6.0 miCalmOvercast
4:00 PM51.8 °F50.0 °F94 %30.04 in5.0 miCalmOvercast
4:20 PM51.8 °F50.0 °F94 %30.03 in4.0 miSE (140°)3.5 mphOvercast
4:40 PM50.0 °F50.0 °F100 %30.03 in3.0 miSSE (150°)3.5 mphOvercast
5:00 PM50.0 °F50.0 °F100 %30.03 in5.0 miCalmOvercast
5:20 PM51.8 °F50.0 °F94 %30.03 in5.0 miESE (120°)3.5 mphOvercast
5:40 PM51.8 °F50.0 °F94 %30.03 in6.0 miCalmOvercast
6:00 PM51.8 °F50.0 °F94 %30.03 in7.0 miCalmOvercast
6:20 PM51.8 °F50.0 °F94 %30.03 in7.0 miCalmOvercast
6:40 PM51.8 °F50.0 °F94 %30.03 in6.0 miCalmOvercast
7:00 PM51.8 °F50.0 °F94 %30.04 in7.0 miESE (120°)3.5 mphMostly Cloudy
7:20 PM51.8 °F50.0 °F94 %30.04 in8.0 miCalmOvercast
7:40 PM51.8 °F48.2 °F88 %30.04 in8.0 miCalmOvercast
8:00 PM51.8 °F48.2 °F88 %30.04 in9.0 miCalmOvercast
8:20 PM51.8 °F48.2 °F88 %30.04 in9.0 miEast (90°)3.5 mphOvercast
8:40 PM51.8 °F48.2 °F88 %30.04 in10.0 miCalmOvercast
9:00 PM50.0 °F48.2 °F94 %30.04 in10.0 miCalmOvercast
9:20 PM50.0 °F48.2 °F94 %30.04 in10.0 miCalmMostly Cloudy
9:40 PM50.0 °F48.2 °F94 %30.04 in10.0 miCalmOvercast
10:00 PM50.0 °F48.2 °F94 %30.05 in10.0 miCalmOvercast
10:20 PM50.0 °F48.2 °F94 %30.05 in10.0 miCalmOvercast
10:40 PM50.0 °F48.2 °F94 %30.06 in10.0 miCalmOvercast
11:00 PM51.8 °F48.2 °F88 %30.06 in10.0 miCalmOvercast
11:20 PM51.8 °F48.2 °F88 %30.06 in10.0 miESE (110°)3.5 mphOvercast
11:40 PM51.8 °F48.2 °F88 %30.06 in10.0 miESE (120°)3.5 mphOvercast
Hourly data recorded from KGOO, located miles away from Grass Valley, California







STORIES FROM OUR PARTNERS